sat.trackr.live / text

‹ back to catalog

STARLINK-4705

NORAD 53723 · 2022-107Z

PAYLOAD ACTIVE UNKNOWN

§ Identity

Operator
Country
US
Launch date
2022-09-05
Launch site
AFETR
Launch vehicle
Mass (kg)
RCS (m²)

Purposes: comms

External: N2YO · Heavens-Above · Gunter

§ Orbital elements

Epoch: 2026-09-20T21:34:22.774944Z

Period
93.79 min
Inclination
53.1604°
Eccentricity
0.0001225
Mean motion
15.35396650 rev/d
Perigee alt
458.9 km
Apogee alt
460.6 km
Semi-major
6,837.9 km
B*
-4.6607e-6
RAAN
83.7936°
Arg perigee
87.1995°
Mean anomaly
272.9148°
Rev number
22,421

§ Raw data

STARLINK-47051 53723U 22107Z   26263.89887471 -.00000543  00000+0 -46607-5 0  99942 53723  53.1604  83.7936 0001225  87.1995 272.9148 15.35396650224213

JSON: /api/v1/satellites/53723 · /tle

For live sub-satellite position, see the globe view (requires WebGL).

§ Visibility from observer

Set your observer location to see the next 7 days of passes ≥ 10°. The values pass through the URL so the page stays shareable.

No JS? Fill the form by hand. The geolocation button needs JavaScript.